QPF
0.00 0.00 0.00 0.00 0.00 0.00 0.00 0.00 0.00 0.00 0.00 0.00 0.00 0.00 0.00 0.00 0.00 0.00 0.00 0.00 0.00 0.00 0.00 0.00 0.00 0.00 0.00 0.00 0.00 0.00 0.00 0.00 0.00 0.03 0.02 0.01 0.00 0.00 0.00 0.00 0.00 0.02 0.02 0.05
0.00 0.00 0.00 0.00 0.00 0.00 0.00 0.00 0.00 0.00 0.00 0.00 0.00 0.00 0.00 0.00 0.00 0.00 0.00 0.00 0.00 0.00 0.00 0.00 0.00 0.00 0.00 0.00 0.00 0.00 0.00 0.00 0.00 0.01 0.00 0.00 0.00 0.00 0.00 0.00 0.01 0.02 0.01 0.02
0.00 0.00 0.00 0.00 0.00 0.00 0.00 0.00 0.00 0.00 0.00 0.00 0.00 0.00 0.00 0.00 0.00 0.00 0.00 0.00 0.00 0.00 0.00 0.00 0.00 0.00 0.00 0.00 0.00 0.00 0.00 0.00 0.00 0.00 0.00 0.00 0.00 0.00 0.00 0.00 0.00 0.00 0.00 0.00
0.00 0.00 0.00 0.00 0.00 0.00 0.00 0.00 0.00 0.00 0.00 0.00 0.00 0.00 0.00 0.00 0.00 0.00 0.00 0.00 0.00 0.00 0.00 0.00 0.00 0.00 0.00 0.00 0.00 0.00 0.00 0.00 0.00 0.01 0.00 0.01 0.00 0.00 0.00 0.00 0.00 0.00 0.00 0.00
0.00 0.00 0.00 0.00 0.00 0.00 0.00 0.00 0.00 0.00 0.00 0.00 0.00 0.00 0.00 0.00 0.00 0.00 0.00 0.00 0.00 0.00 0.00 0.00 0.00 0.00 0.00 0.00 0.00 0.00 0.00 0.00 0.00 0.00 0.00 0.00 0.00 0.00 0.00 0.00 0.00 0.00 0.00 0.00
0.00 0.00 0.00 0.00 0.00 0.00 0.00 0.00 0.00 0.00 0.00 0.00 0.00 0.00 0.00 0.00 0.00 0.00 0.00 0.00 0.00 0.00 0.00 0.00 0.00 0.00 0.00 0.00 0.00 0.00 0.00 0.00 0.00 0.00 0.00 0.00 0.00 0.00 0.00 0.00 0.00 0.00 0.00 0.00
0.00 0.00 0.00 0.00 0.00 0.00 0.00 0.00 0.00 0.00 0.00 0.00 0.00 0.00 0.00 0.00 0.00 0.00 0.00 0.00 0.00 0.00 0.00 0.00 0.00 0.00 0.00 0.00 0.00 0.00 0.00 0.00 0.00 0.00 0.00 0.00 0.00 0.00 0.00 0.00 0.00 0.00 0.00 0.00
0.00 0.00 0.00 0.00 0.00 0.00 0.00 0.00 0.00 0.00 0.00 0.00 0.00 0.00 0.00 0.00 0.00 0.00 0.00 0.00 0.00 0.00 0.00 0.00 0.00 0.00 0.00 0.00 0.00 0.00 0.00 0.00 0.00 0.00 0.00 0.00 0.00 0.00 0.00 0.00 0.00 0.00 0.00 0.00
0.00 0.00 0.00 0.00 0.00 0.00 0.00 0.00 0.00 0.00 0.00 0.00 0.00 0.00 0.00 0.00 0.00 0.00 0.00 0.00 0.00 0.00 0.00 0.00 0.00 0.00 0.00 0.00 0.00 0.00 0.00 0.00 0.00 0.00 0.00 0.00 0.00 0.00 0.00 0.00 0.00 0.00 0.00 0.00
0.00 0.00 0.00 0.00 0.00 0.00 0.00 0.00 0.00 0.00 0.00 0.00 0.00 0.00 0.00 0.00 0.00 0.00 0.00 0.00 0.00 0.00 0.00 0.00 0.00 0.00 0.00 0.00 0.00 0.00 0.00 0.00 0.00 0.00 0.00 0.00 0.00 0.00 0.00 0.00 0.00 0.00 0.00 0.00
0.00 0.00 0.00 0.00 0.00 0.00 0.00 0.00 0.00 0.00 0.00 0.00 0.00 0.00 0.00 0.00 0.00 0.00 0.00 0.00 0.00 0.00 0.00 0.00 0.00 0.00 0.00 0.00 0.00 0.00 0.00 0.00 0.00 0.00 0.00 0.00 0.00 0.00 0.00 0.00 0.00 0.00 0.00 0.00
0.00 0.00 0.00 0.00 0.00 0.00 0.00 0.00 0.00 0.00 0.00 0.00 0.00 0.00 0.00 0.00 0.00 0.00 0.00 0.00 0.00 0.00 0.00 0.00 0.00 0.00 0.00 0.00 0.00 0.00 0.00 0.00 0.00 0.00 0.00 0.00 0.00 0.00 0.00 0.00 0.00 0.00 0.00 0.00
0.00 0.00 0.00 0.00 0.00 0.00 0.00 0.00 0.00 0.00 0.00 0.00 0.00 0.00 0.00 0.00 0.00 0.00 0.00 0.00 0.00 0.00 0.00 0.00 0.00 0.00 0.00 0.00 0.00 0.00 0.00 0.00 0.00 0.00 0.00 0.00 0.00 0.00 0.00 0.00 0.00 0.00 0.00 0.00
0.00 0.00 0.00 0.00 0.00 0.00 0.00 0.00 0.00 0.00 0.00 0.00 0.00 0.00 0.00 0.00 0.00 0.00 0.00 0.00 0.00 0.00 0.00 0.00 0.00 0.00 0.00 0.00 0.00 0.00 0.00 0.00 0.00 0.00 0.00 0.00 0.00 0.00 0.00 0.00 0.00 0.00 0.00 0.00
0.00 0.00 0.00 0.00 0.00 0.00 0.00 0.00 0.00 0.00 0.00 0.00 0.00 0.00 0.00 0.00 0.00 0.00 0.00 0.00 0.00 0.00 0.00 0.00 0.00 0.00 0.00 0.00 0.00 0.00 0.00 0.00 0.00 0.00 0.00 0.00 0.00 0.00 0.00 0.00 0.00 0.00 0.00 0.00
0.00 0.00 0.00 0.00 0.00 0.00 0.00 0.00 0.00 0.00 0.00 0.00 0.00 0.00 0.00 0.00 0.00 0.00 0.00 0.00 0.00 0.00 0.00 0.00 0.00 0.00 0.00 0.00 0.00 0.00 0.00 0.00 0.00 0.00 0.00 0.00 0.00 0.00 0.00 0.00 0.00 0.00 0.00 0.01
0.00 0.00 0.00 0.00 0.00 0.00 0.00 0.00 0.00 0.00 0.00 0.00 0.00 0.00 0.00 0.00 0.00 0.00 0.00 0.00 0.00 0.00 0.00 0.00 0.00 0.00 0.00 0.00 0.00 0.00 0.00 0.00 0.00 0.00 0.00 0.00 0.00 0.00 0.00 0.00 0.00 0.00 0.00 0.01
0.00 0.00 0.00 0.00 0.00 0.00 0.00 0.00 0.00 0.00 0.00 0.00 0.00 0.00 0.00 0.00 0.00 0.00 0.00 0.00 0.00 0.00 0.00 0.00 0.00 0.00 0.00 0.00 0.00 0.00 0.00 0.00 0.00 0.00 0.00 0.00 0.00 0.00 0.00 0.00 0.00 0.00 0.00 0.00
0.00 0.00 0.00 0.00 0.00 0.00 0.00 0.00 0.00 0.00 0.00 0.00 0.00 0.00 0.00 0.00 0.00 0.00 0.00 0.00 0.00 0.00 0.00 0.00 0.00 0.00 0.00 0.00 0.00 0.00 0.00 0.00 0.00 0.00 0.00 0.00 0.00 0.00 0.00 0.00 0.00 0.00 0.00 0.00
0.00 0.00 0.00 0.00 0.00 0.00 0.00 0.00 0.00 0.00 0.00 0.00 0.00 0.00 0.00 0.00 0.00 0.00 0.00 0.00 0.00 0.00 0.00 0.00 0.00 0.00 0.00 0.00 0.00 0.00 0.00 0.00 0.00 0.00 0.00 0.00 0.00 0.00 0.00 0.00 0.00 0.00 0.00 0.00
0.00 0.00 0.00 0.00 0.00 0.00 0.00 0.00 0.00 0.00 0.00 0.00 0.00 0.00 0.00 0.00 0.00 0.00 0.00 0.00 0.00 0.00 0.00 0.00 0.00 0.00 0.00 0.00 0.00 0.00 0.00 0.00 0.00 0.00 0.00 0.00 0.00 0.00 0.00 0.00 0.00 0.00 0.00 0.00
0.00 0.00 0.00 0.00 0.00 0.00 0.00 0.00 0.00 0.00 0.00 0.00 0.00 0.00 0.00 0.00 0.00 0.00 0.00 0.00 0.00 0.00 0.00 0.00 0.00 0.00 0.00 0.00 0.00 0.00 0.00 0.00 0.00 0.00 0.00 0.00 0.00 0.00 0.00 0.00 0.00 0.00 0.00 0.00
0.00 0.00 0.00 0.00 0.00 0.00 0.00 0.00 0.00 0.00 0.00 0.00 0.00 0.00 0.00 0.00 0.00 0.00 0.00 0.00 0.00 0.00 0.00 0.00 0.00 0.00 0.00 0.00 0.00 0.00 0.00 0.00 0.00 0.00 0.00 0.00 0.00 0.00 0.00 0.00 0.00 0.00 0.01 0.01
0.00 0.00 0.00 0.00 0.00 0.00 0.00 0.00 0.00 0.00 0.00 0.00 0.00 0.00 0.00 0.00 0.00 0.00 0.00 0.00 0.00 0.00 0.00 0.00 0.00 0.00 0.00 0.00 0.00 0.00 0.00 0.00 0.00 0.00 0.00 0.00 0.00 0.00 0.00 0.00 0.01 0.01 0.02 0.03
0.03 0.03 0.00 0.00 0.00 0.00 0.00 0.00 0.00 0.00 0.00 0.00 0.01 0.04 0.01 0.00 0.00 0.00 0.00 0.00 0.00 0.00 0.00 0.00 0.00 0.00 0.00 0.00 0.00 0.00 0.00 0.00 0.00 0.00 0.00 0.00 0.00 0.00 0.00 0.00 0.00 0.02 0.01 0.01
0.06 0.10 0.05 0.03 0.00 0.00 0.00 0.00 0.00 0.00 0.00 0.00 0.00 0.03 0.05 0.04 0.02 0.00 0.00 0.00 0.00 0.00 0.00 0.00 0.00 0.00 0.00 0.00 0.00 0.00 0.00 0.00 0.00 0.00 0.00 0.00 0.00 0.00 0.00 0.00 0.00 0.00 0.00 0.00
MSLP
998.99 998.56 997.25 997.11 996.75 996.31 995.09 994.54 994.30 994.43 995.46 997.03 997.57 997.77 998.50 999.56 1000.17 1000.59 1001.47 1002.64 1003.47 1004.26 1005.05 1005.98 1006.94 1007.64 1008.49 1009.25 1010.23 1011.09 1011.78 1012.31 1012.85 1013.42 1013.80 1014.02 1013.72 1013.74 1013.94 1013.84 1014.36 1014.87 1015.11 1015.61
998.05 996.91 996.82 996.95 996.59 996.12 994.98 994.08 993.82 994.09 994.88 996.20 996.71 996.91 997.40 998.60 999.49 999.98 1000.38 1001.38 1002.41 1003.26 1004.09 1005.19 1006.18 1006.95 1007.75 1008.66 1009.48 1010.51 1011.29 1011.89 1012.60 1012.92 1013.36 1012.71 1012.72 1012.61 1012.76 1013.13 1013.89 1014.28 1014.80 1014.96
995.85 995.90 996.45 996.06 995.73 995.41 994.86 993.84 993.39 993.67 994.40 995.70 996.10 996.46 996.44 997.20 998.41 999.22 999.73 1000.13 1001.06 1001.94 1002.81 1003.98 1005.26 1006.20 1006.99 1007.81 1008.76 1009.66 1010.58 1011.28 1011.96 1012.31 1012.74 1012.93 1012.91 1012.88 1012.83 1012.98 1013.32 1013.90 1014.42 1014.50
995.64 995.27 995.36 995.43 995.03 994.85 994.20 994.36 993.76 993.63 995.01 995.42 995.80 994.86 995.13 995.94 996.75 997.78 998.65 999.14 999.64 1000.60 1001.72 1002.67 1003.96 1005.17 1005.94 1006.86 1008.02 1008.92 1009.93 1010.75 1011.44 1012.01 1011.93 1012.04 1012.25 1012.28 1012.24 1012.56 1012.49 1013.16 1013.88 1014.11
994.52 994.61 994.40 994.47 994.07 994.41 994.12 994.10 994.10 993.74 993.60 994.19 994.54 994.80 993.49 994.65 994.89 995.82 996.95 997.69 998.49 999.15 1000.33 1001.33 1002.34 1003.76 1004.96 1005.98 1006.96 1008.05 1009.14 1010.05 1010.65 1011.21 1011.72 1011.65 1012.09 1011.77 1011.94 1012.28 1012.86 1013.66 1014.05 1014.24
994.14 994.44 994.23 993.82 994.31 994.34 994.55 994.17 993.90 993.95 993.66 993.49 993.53 994.34 992.82 994.89 993.49 994.06 994.88 996.05 997.15 998.00 998.95 1000.22 1001.33 1002.42 1003.70 1004.89 1005.90 1006.91 1008.11 1009.17 1010.03 1010.54 1011.18 1011.51 1011.37 1011.78 1011.72 1012.16 1012.74 1013.24 1013.50 1014.18
993.93 993.38 993.68 993.75 994.12 994.18 994.48 993.97 993.29 993.01 992.60 992.46 993.23 992.71 994.39 991.75 992.36 993.16 993.53 994.11 995.14 996.67 997.80 998.92 1000.07 1001.07 1002.36 1003.57 1004.77 1005.88 1007.02 1008.15 1009.07 1009.82 1010.33 1011.09 1011.39 1011.68 1011.91 1012.02 1012.47 1012.46 1012.61 1013.15
992.53 992.47 992.58 993.09 993.06 993.06 993.13 992.88 992.09 991.80 991.75 991.87 991.95 990.93 990.85 991.30 991.59 992.07 992.62 992.88 993.47 995.13 996.58 997.69 998.85 1000.04 1001.14 1002.49 1003.78 1004.95 1005.90 1007.10 1008.14 1008.92 1009.57 1010.31 1011.03 1011.35 1011.61 1011.83 1011.74 1012.24 1012.07 1012.52
991.08 991.38 992.08 992.53 993.07 993.21 992.22 991.86 992.21 991.94 991.61 991.24 990.52 990.47 990.90 990.98 991.17 991.97 992.53 992.72 992.96 993.76 995.25 996.50 997.67 998.99 1000.17 1001.43 1002.58 1003.78 1005.01 1006.19 1007.15 1007.93 1008.78 1009.50 1010.20 1010.63 1010.73 1011.08 1011.50 1011.66 1011.96 1012.12
990.82 990.66 991.05 991.52 992.65 992.54 991.76 991.88 991.72 990.96 990.23 989.60 989.58 989.33 989.38 990.04 991.21 991.68 991.92 992.18 992.28 992.98 993.90 995.24 996.47 997.81 999.17 1000.35 1001.71 1003.03 1004.22 1005.22 1006.28 1007.09 1007.75 1008.47 1009.16 1009.88 1010.32 1010.45 1010.85 1011.39 1011.67 1012.25
990.95 990.61 990.41 991.00 990.41 990.80 991.53 990.56 990.43 990.96 990.63 989.57 989.06 988.34 988.65 989.30 990.38 991.02 991.41 991.60 991.50 992.06 992.77 994.12 995.30 996.63 998.07 999.33 1000.55 1001.88 1003.14 1004.29 1005.34 1006.12 1006.67 1007.42 1008.16 1008.96 1009.62 1009.85 1010.35 1011.01 1011.58 1012.09
990.30 990.37 990.06 989.52 990.12 990.84 990.92 990.40 990.43 989.68 990.16 989.87 989.06 987.71 987.90 988.65 989.52 990.28 990.32 990.33 990.64 991.15 991.56 992.69 994.05 995.36 996.76 998.10 999.23 1000.34 1001.73 1002.95 1004.01 1004.89 1005.69 1006.39 1007.20 1007.92 1008.51 1009.11 1009.52 1010.38 1011.13 1011.64
989.73 989.84 989.64 990.01 989.58 989.75 989.79 989.60 989.47 989.63 989.73 988.76 988.82 988.08 988.40 988.79 988.91 989.67 990.27 990.47 990.61 990.87 991.46 991.90 992.69 994.09 995.34 996.78 998.22 999.10 1000.31 1001.28 1002.54 1003.70 1004.52 1005.41 1006.17 1006.75 1007.35 1008.01 1008.70 1009.37 1010.22 1010.79
989.53 989.36 989.03 988.15 988.55 988.79 989.18 989.65 989.59 989.13 988.43 988.49 988.08 988.60 988.26 988.31 988.97 989.56 990.10 990.32 990.26 990.67 991.62 992.41 992.52 993.15 994.20 995.48 996.91 998.07 999.03 1000.03 1001.12 1002.25 1003.26 1004.14 1005.02 1005.72 1006.45 1007.08 1007.74 1008.49 1009.35 1009.91
989.92 989.26 988.96 988.96 988.67 988.60 988.29 988.89 989.13 988.75 988.41 988.32 988.03 988.01 988.20 988.23 988.66 989.02 989.78 990.10 990.44 990.72 991.06 992.13 992.66 992.73 993.50 994.82 996.05 997.32 998.11 999.05 999.83 1000.94 1001.95 1002.87 1004.00 1004.95 1005.75 1006.40 1007.07 1007.84 1008.82 1009.42
990.03 989.55 989.51 988.86 988.99 988.78 987.98 987.86 988.28 988.66 988.65 988.17 988.31 987.54 987.89 988.20 988.26 988.58 988.80 989.48 989.74 990.03 990.37 991.05 992.27 992.79 993.13 994.24 995.32 996.58 997.55 998.16 999.24 999.94 1000.77 1001.96 1003.16 1004.24 1005.01 1005.80 1006.57 1007.48 1008.24 1009.10
989.58 989.73 989.99 989.15 989.23 988.88 988.34 987.71 987.40 987.43 987.79 988.33 988.19 988.06 988.63 988.03 987.82 987.93 988.44 988.97 989.40 989.79 990.02 990.04 991.33 992.32 992.68 993.85 995.02 995.92 996.96 997.93 998.66 999.48 1000.23 1001.14 1002.30 1003.32 1004.30 1005.37 1006.19 1006.93 1007.84 1008.63
989.27 989.79 989.90 989.39 989.51 988.47 987.39 987.74 987.65 987.71 987.58 987.35 987.31 987.77 988.07 988.10 988.00 987.91 988.11 988.27 988.83 989.31 989.46 989.50 990.26 991.75 992.58 993.39 994.41 995.67 996.72 997.64 998.33 999.23 999.91 1000.77 1001.84 1002.99 1004.12 1004.90 1005.61 1006.50 1007.36 1007.85
989.58 989.71 989.76 989.37 988.75 988.53 988.26 988.16 987.84 987.81 987.37 987.30 987.21 987.17 987.14 987.57 987.66 987.52 987.41 987.59 987.98 988.53 988.77 988.82 989.21 990.69 991.96 992.72 993.70 995.01 996.23 997.33 998.20 998.96 999.83 1000.58 1001.57 1002.49 1003.53 1004.38 1004.93 1005.57 1006.16 1006.95
990.03 990.19 989.62 989.27 988.44 987.69 988.06 989.16 989.45 989.51 988.35 988.34 988.34 987.97 987.29 986.90 986.65 986.27 987.00 987.47 987.36 987.74 988.23 988.53 988.77 990.14 991.26 992.39 993.28 994.79 995.90 996.67 997.61 998.52 999.51 1000.41 1001.32 1002.20 1003.17 1004.14 1004.84 1005.66 1006.31 1006.90
989.66 989.82 989.27 988.87 988.42 988.16 989.10 989.89 990.23 990.35 990.20 990.12 989.91 989.23 988.47 987.52 986.34 986.65 986.80 986.57 987.20 987.90 988.95 989.20 989.33 989.99 991.27 992.54 993.33 994.84 995.99 996.70 997.50 998.44 999.45 1000.48 1001.50 1002.40 1003.21 1004.05 1004.65 1005.36 1006.12 1006.68
988.93 989.04 988.55 989.02 988.57 988.78 990.00 990.15 990.32 991.12 990.77 990.84 990.16 989.34 988.73 988.17 987.08 987.00 988.25 988.42 988.37 988.80 989.32 989.83 989.97 990.82 992.15 992.57 993.69 995.17 996.29 996.99 997.61 998.48 999.34 1000.38 1001.35 1002.29 1003.21 1004.08 1004.64 1005.51 1006.20 1007.00
988.49 988.06 988.43 988.89 988.76 990.07 990.97 991.28 991.78 991.46 991.46 991.40 990.28 989.43 988.77 988.20 988.04 988.34 989.22 989.41 989.91 990.09 990.50 990.63 991.10 991.99 993.71 993.31 994.31 995.57 996.52 997.15 997.94 998.93 999.85 1000.81 1001.57 1002.40 1003.38 1004.34 1005.10 1005.84 1006.50 1006.96
988.79 989.12 989.09 989.70 991.19 991.40 991.70 992.60 992.88 992.61 992.35 991.68 990.67 989.62 989.48 989.48 990.00 990.33 990.71 991.11 991.46 991.69 992.10 992.66 992.89 993.08 994.69 994.14 995.01 996.44 997.33 998.10 998.68 999.58 1000.59 1001.89 1002.36 1002.92 1003.86 1004.74 1005.43 1006.02 1006.65 1006.88
993.40 992.92 989.78 990.20 991.49 992.79 994.20 993.89 993.57 993.81 993.15 993.08 992.73 992.16 992.36 991.90 992.31 992.44 992.72 993.05 993.52 993.58 993.63 994.11 994.29 994.50 995.67 995.71 996.29 997.30 998.09 998.67 999.30 1000.49 1001.36 1002.18 1002.76 1003.29 1004.20 1005.29 1005.99 1005.90 1006.80 1007.16
996.95 995.43 994.71 988.97 991.15 991.58 994.35 995.21 995.49 995.27 995.02 994.68 993.95 994.11 994.60 994.55 994.46 994.67 995.00 995.00 995.13 995.34 995.46 995.37 995.12 995.42 996.25 997.21 997.59 998.11 998.53 999.15 999.85 1000.50 1001.26 1002.02 1002.86 1003.38 1003.84 1004.97 1006.37 1007.39 1007.64 1007.79
Thickness
5830 5813 5810 5828 5844 5851 5866 5867 5863 5878 5878 5855 5848 5852 5853 5856 5853 5849 5845 5840 5837 5835 5841 5840 5835 5834 5829 5826 5819 5814 5810 5809 5805 5799 5795 5793 5795 5799 5799 5800 5796 5792 5789 5784
5816 5808 5837 5846 5848 5846 5857 5863 5866 5882 5882 5862 5858 5855 5868 5859 5853 5855 5853 5847 5844 5843 5843 5840 5838 5836 5832 5827 5823 5817 5813 5810 5805 5804 5800 5807 5807 5809 5809 5805 5799 5795 5789 5787
5820 5834 5845 5841 5841 5837 5847 5857 5870 5870 5879 5870 5862 5840 5862 5870 5864 5861 5862 5863 5857 5851 5847 5845 5840 5838 5837 5831 5826 5821 5817 5814 5810 5809 5806 5805 5806 5805 5804 5803 5801 5795 5789 5787
5822 5846 5837 5832 5831 5846 5832 5866 5874 5876 5836 5817 5861 5828 5857 5868 5862 5861 5860 5863 5864 5861 5859 5856 5848 5842 5840 5837 5833 5828 5822 5816 5813 5810 5809 5806 5803 5798 5804 5803 5805 5799 5790 5786
5819 5826 5830 5824 5839 5852 5841 5872 5865 5871 5866 5856 5851 5836 5863 5873 5862 5865 5869 5871 5872 5873 5868 5862 5859 5852 5847 5844 5838 5832 5825 5820 5817 5814 5810 5809 5802 5806 5806 5802 5796 5789 5785 5782
5828 5845 5838 5840 5848 5851 5862 5857 5862 5864 5860 5819 5854 5832 5857 5832 5873 5881 5887 5881 5878 5878 5876 5871 5868 5864 5854 5850 5843 5838 5829 5821 5819 5816 5812 5807 5806 5801 5800 5796 5790 5787 5786 5781
5813 5822 5838 5843 5823 5843 5839 5834 5811 5811 5817 5815 5858 5849 5826 5896 5896 5890 5891 5895 5893 5886 5880 5875 5869 5865 5859 5852 5846 5841 5833 5823 5821 5817 5815 5808 5804 5800 5795 5793 5789 5790 5789 5786
5793 5787 5823 5837 5826 5823 5828 5835 5815 5785 5805 5827 5866 5839 5866 5902 5907 5908 5905 5910 5908 5893 5887 5882 5878 5872 5866 5858 5850 5843 5836 5827 5823 5820 5815 5812 5804 5800 5797 5795 5795 5790 5791 5789
5799 5797 5832 5831 5832 5830 5828 5819 5855 5835 5849 5835 5856 5869 5884 5891 5892 5894 5891 5898 5901 5900 5892 5886 5884 5879 5872 5864 5856 5849 5839 5831 5826 5822 5817 5813 5808 5803 5800 5799 5797 5796 5793 5792
5817 5794 5824 5829 5826 5829 5828 5853 5820 5837 5806 5808 5842 5852 5853 5872 5868 5879 5884 5890 5901 5903 5897 5893 5889 5883 5878 5871 5863 5854 5844 5835 5828 5824 5821 5817 5812 5807 5804 5805 5800 5795 5794 5787
5814 5805 5808 5821 5811 5810 5810 5821 5835 5840 5836 5816 5817 5843 5895 5882 5876 5872 5881 5892 5904 5904 5903 5896 5893 5889 5883 5876 5868 5858 5849 5839 5832 5828 5826 5822 5817 5812 5808 5807 5803 5796 5791 5786
5810 5800 5783 5804 5829 5828 5820 5819 5828 5822 5804 5828 5837 5849 5910 5900 5891 5888 5894 5907 5912 5912 5914 5906 5900 5893 5886 5879 5874 5866 5857 5847 5841 5836 5832 5827 5823 5817 5812 5809 5806 5798 5790 5786
5804 5785 5773 5777 5811 5820 5803 5818 5833 5838 5841 5820 5814 5832 5897 5892 5892 5891 5887 5894 5902 5907 5904 5908 5905 5896 5891 5885 5877 5873 5866 5859 5852 5844 5839 5832 5826 5822 5817 5814 5810 5803 5794 5785
5800 5791 5779 5780 5791 5816 5795 5800 5816 5827 5817 5818 5823 5838 5867 5879 5875 5879 5881 5889 5899 5899 5894 5894 5898 5898 5896 5891 5883 5876 5872 5867 5860 5853 5845 5837 5831 5827 5821 5817 5811 5804 5795 5790
5780 5765 5787 5794 5809 5813 5814 5803 5805 5804 5819 5810 5831 5836 5855 5872 5876 5881 5882 5885 5885 5887 5890 5887 5888 5895 5896 5890 5884 5878 5874 5870 5868 5857 5850 5843 5837 5830 5823 5816 5812 5805 5795 5787
5771 5755 5774 5775 5795 5799 5800 5816 5810 5805 5810 5818 5825 5829 5868 5877 5882 5877 5881 5878 5880 5884 5890 5892 5885 5887 5891 5888 5883 5877 5872 5872 5867 5860 5853 5848 5839 5830 5823 5816 5809 5801 5793 5783
5754 5755 5749 5746 5778 5784 5770 5794 5808 5816 5820 5810 5795 5819 5846 5850 5860 5870 5873 5873 5872 5879 5887 5893 5886 5884 5890 5886 5881 5874 5871 5869 5863 5858 5854 5849 5841 5832 5824 5815 5807 5798 5788 5780
5745 5742 5750 5748 5761 5734 5788 5817 5816 5807 5816 5829 5829 5830 5832 5837 5852 5864 5871 5871 5871 5877 5884 5892 5891 5884 5886 5887 5880 5874 5869 5863 5859 5854 5851 5848 5839 5829 5819 5811 5804 5794 5786 5778
5745 5742 5735 5734 5745 5766 5779 5794 5795 5790 5796 5824 5824 5832 5839 5840 5843 5843 5864 5875 5874 5877 5886 5894 5897 5890 5885 5883 5881 5872 5864 5858 5853 5850 5846 5842 5835 5826 5818 5808 5802 5795 5788 5779
5732 5735 5740 5742 5735 5739 5787 5777 5791 5789 5768 5812 5810 5810 5823 5835 5813 5829 5856 5865 5873 5878 5884 5886 5893 5888 5883 5880 5878 5866 5859 5855 5849 5847 5843 5838 5831 5822 5812 5803 5796 5788 5780 5771
5704 5711 5715 5736 5739 5764 5762 5769 5780 5740 5760 5781 5788 5796 5803 5805 5829 5846 5857 5863 5866 5867 5866 5875 5881 5879 5876 5873 5869 5857 5851 5846 5847 5843 5836 5829 5821 5813 5807 5797 5791 5782 5770 5762
5703 5705 5717 5733 5735 5728 5761 5764 5750 5755 5771 5774 5783 5793 5798 5810 5828 5837 5826 5832 5842 5847 5852 5859 5864 5863 5862 5865 5859 5847 5840 5843 5842 5835 5828 5820 5813 5806 5798 5788 5782 5770 5760 5747
5712 5731 5733 5744 5749 5751 5748 5748 5755 5764 5759 5762 5777 5791 5801 5806 5809 5809 5805 5815 5821 5828 5833 5844 5846 5846 5840 5851 5847 5835 5834 5835 5829 5822 5813 5804 5800 5794 5785 5773 5764 5754 5745 5737
5740 5750 5743 5729 5719 5722 5735 5735 5741 5749 5749 5759 5775 5786 5792 5788 5787 5788 5791 5795 5800 5807 5812 5819 5824 5828 5821 5836 5833 5825 5821 5818 5812 5804 5795 5785 5781 5775 5767 5758 5752 5743 5733 5727
5663 5676 5732 5718 5707 5708 5704 5717 5730 5730 5739 5741 5748 5757 5757 5766 5762 5765 5767 5773 5777 5784 5794 5799 5805 5809 5805 5814 5813 5809 5805 5802 5795 5786 5779 5771 5765 5759 5750 5739 5736 5734 5720 5714
5628 5646 5656 5695 5710 5715 5698 5704 5707 5710 5714 5722 5730 5733 5733 5739 5740 5745 5746 5755 5760 5764 5772 5780 5790 5794 5792 5789 5791 5792 5792 5787 5779 5771 5767 5761 5751 5746 5741 5731 5717 5699 5695 5691